Tracking 19720 objects as of 27-Jun-2019
HD Live streaming from Space Station
objects crossing your sky now

BREEZE-M DEB (TANK)

Track BREEZE-M DEB (TANK) now!


NORAD ID: 28477
Int'l Code: 2004-041C
Perigee: 1,772.6 km
Apogee: 34,859.8 km
Inclination: 48.0 °
Period: 643.4 minutes
Semi major axis: 24687 km
RCS: 7.1658 m2 (large)
Launch date: October 14, 2004
Source: Commonwealth of Independent States (former USSR) (CIS)
Launch site: TYURATAM MISSILE AND SPACE COMPLEX (TTMTR)

Note: This is SATELLITE DEBRIS
aabbcc
Your satellite tracking list
Your tracking list is empty




NASA's NSSDC Master Catalog

Two Line Element Set (TLE):
1 28477U 04041C   19176.36681361 -.00000221  00000-0  00000+0 0  9990
2 28477  48.0169 293.7550 6701296 333.8914   3.9027  2.23818229120024
Source of the keplerian elements: AFSPC